Location: Brienzwiler
(46.7508°N, 8.1014°E)
Time: 07:36:27
(UTC+00:00)

Cosmos 332 Rocket - Pass Details

Date: 05 July 2020
Orbit: 682 x 703 km, 74.0° (Epoch: 05 August)

Event Time Altitude Azimuth Distance (km) Brightness Sun altitude
Rises 23:12:47 0° 339° (NNW) 3,056 8.5 -20.4°
Reaches altitude 10° 23:15:07 10° 341° (NNW) 2,136 7.4 -20.5°
Maximum altitude 23:19:55 74° 67° (ENE) 714 3.8 -20.5°
Enters shadow 23:21:28 43° 142° (SE) 964 4.1 -20.5°
